Regional Weather Roundup
Issued by NWS Kansas City/Pleasant Hill, MO

Home | Current Version | Previous Version | Text Only | Print | Product List | Glossary On
Versions: 1 2 3 4 5 6 7 8 9 10 11 12 13 14 15 16 17 18 19 20 21 22 23 24 25 26 27 28 29 30 31 32 33 34 35 36 37 38 39 40 41 42 43 44 45 46 47 48
000
ASUS43 KEAX 282210
RWREAX

WEATHER ROUNDUP FOR EASTERN KANSAS AND NORTHWEST MISSOURI
NATIONAL WEATHER SERVICE KANSAS CITY/PLEASANT HILL MO
500 PM CDT TUE JUL 28 2015

KSZ040-057-103>105-MOZ028-029-037-043-282300-
...KANSAS CITY METROPOLITAN AREA...

CITY           SKY/WX    TMP DP  RH WIND       PRES   REMARKS
K.C. INTL      MOSUNNY   93  74  53 SW13      29.87F HX 103
K.C. DOWNTOWN  SUNNY     96  72  45 S10G24    29.85F HX 104
LEES SUMMIT    SUNNY     94  71  47 S9G21     29.89F HX 101
OLATHE - IXD   SUNNY     95  70  44 S17G23    29.89F HX 101
OLATHE - OJC   SUNNY     93  72  50 S13G22    29.88F HX 101
LAWRENCE       SUNNY     96  72  45 S13       29.86S HX 104

$$

MOZ001>008-011>017-020>025-030>033-038>040-044>046-053-054-282300-
...NORTHERN AND CENTRAL MISSOURI...

CITY           SKY/WX    TMP DP  RH WIND       PRES   REMARKS
ST. JOSEPH     MOSUNNY   93  77  59 S12       29.84F HX 107
MOSBY          CLEAR     95  70  43 S9        29.87S HX 101
WARRENSBURG    SUNNY     91  70  49 S12G21    29.89S HX  97
WHITEMAN AFB   SUNNY     94  73  49 S16G25    29.89F HX 103
CLINTON          N/A     93  73  52 S12G17    29.90F HX 102
SEDALIA        SUNNY     95  73  48 S16       29.92F HX 104
WARSAW         NOT AVBL
CHILLICOTHE      N/A     93  75  55 S10       29.88F HX 104
KIRKSVILLE     MOSUNNY   92  76  59 S12       29.91F HX 104

$$

MOZ041-047>049-056>058-063>065-088>090-097-282300-
...EASTERN AND SOUTHERN MISSOURI...

CITY           SKY/WX    TMP DP  RH WIND       PRES   REMARKS
ST. LOUIS INTL MOSUNNY   98  74  45 VRB5      29.92S HX 109
SPIRIT OF STL  MOSUNNY   95  79  59 S8        29.90S HX 112
COLUMBIA       SUNNY     92  76  59 S16       29.92F HX 104
JEFFERSON CITY MOSUNNY   94  74  52 S12       29.89F HX 104
ROLLA          SUNNY     92  76  59 SW10      29.94F HX 104
OSAGE BEACH    SUNNY     95  73  49 SW14      29.93F HX 105
SPRINGFIELD    MOSUNNY   92  72  51 S13       29.96F HX  99
BRANSON        MOSUNNY   93  73  52 SW7       30.00F HX 102
JOPLIN         MOSUNNY   93  73  52 S16G22    29.93F HX 102
WEST PLAINS    SUNNY     92  73  53 SW7       30.00F HX 100

$$

IAZ060-094-KSZ022-034>040-054-083-096-NEZ052-066-093-282300-
...KANSAS...SOUTHEAST NEBRASKA AND IOWA...

CITY           SKY/WX    TMP DP  RH WIND       PRES   REMARKS
TOPEKA         SUNNY     96  71  44 S14       29.85S HX 103
MANHATTAN      SUNNY    100  72  40 S16G23    29.82F HX 109
EMPORIA        SUNNY     98  70  40 S22       29.87S HX 105
CHANUTE        SUNNY     94  71  47 S17G28    29.90F HX 101
WICHITA        SUNNY     99  69  37 S20G29    29.85F HX 105
OMAHA          PTSUNNY   89  75  63 NW9       29.86F HX  99
LINCOLN        MOSUNNY   81  71  71 N24       29.91R
FALLS CITY     SUNNY     94  76  55 S9        29.84S HX 106
LAMONI         SUNNY     92  76  59 S12       29.86F HX 104
DES MOINES     TSTM      80  75  84 SE14G26   29.84F

$$




USA.gov is the U.S. government's official web portal to all federal, state and local government web resources and services.